When you browse on this site, cookies collect data to enhance your experience and personalize the content and advertising you see.
Visit our Privacy Policy to learn more. By continuing to use the site, you agree to this use of cookies and data.
  • In Österreich
  • Länderverzeichnis
  • Für 7 Tage
  • Wassertemperatur
  • Satellitenkarten
  • Wetterkarte
  • News
  • Widgets
  • user-avatar
    Anmelden

    Stündliche Wetter Kalgoorlie

    Heute, 25 Mai, Samstag

    Zeit Temperatur Niederschläge Wind Luftdruck Luftfeuchtigkeit
    00:00 +14°C° 0 mm 4 m/S 735 mmHg 54%
    01:00 +13°C° 0 mm 4 m/S 735 mmHg 58%
    02:00 +13°C° 0 mm 4 m/S 735 mmHg 64%
    03:00 +12°C° 0 mm 4 m/S 735 mmHg 68%
    04:00 +12°C° 0 mm 3 m/S 735 mmHg 71%
    05:00 +12°C° 0 mm 3 m/S 735 mmHg 75%
    06:00 +12°C° 0 mm 3 m/S 735 mmHg 73%
    07:00 +12°C° 0 mm 3 m/S 735 mmHg 72%
    08:00 +13°C° 0 mm 3 m/S 736 mmHg 69%
    09:00 +14°C° 0 mm 3 m/S 736 mmHg 63%
    10:00 +17°C° 0 mm 3 m/S 736 mmHg 57%
    11:00 +18°C° 0 mm 3 m/S 736 mmHg 50%
    12:00 +19°C° 0 mm 3 m/S 735 mmHg 47%
    13:00 +19°C° 0 mm 3 m/S 735 mmHg 44%
    14:00 +20°C° 0 mm 2 m/S 735 mmHg 41%
    15:00 +19°C° 0 mm 2 m/S 735 mmHg 42%
    16:00 +19°C° 0 mm 2 m/S 735 mmHg 43%
    17:00 +18°C° 0 mm 2 m/S 735 mmHg 44%
    18:00 +18°C° 0 mm 2 m/S 735 mmHg 46%
    19:00 +17°C° 0 mm 2 m/S 735 mmHg 49%
    20:00 +16°C° 0 mm 2 m/S 735 mmHg 51%
    21:00 +16°C° 0 mm 3 m/S 736 mmHg 55%
    22:00 +14°C° 0 mm 3 m/S 736 mmHg 59%
    23:00 +14°C° 0 mm 3 m/S 736 mmHg 64%

    Morgen, 26 Mai, Sonntag

    Zeit Temperatur Niederschläge Wind Luftdruck Luftfeuchtigkeit
    00:00 +13°C° 0 mm 3 m/S 736 mmHg 68%
    01:00 +12°C° 0 mm 3 m/S 736 mmHg 72%
    02:00 +12°C° 0 mm 3 m/S 735 mmHg 76%
    03:00 +12°C° 0 mm 3 m/S 735 mmHg 78%
    04:00 +11°C° 0 mm 3 m/S 735 mmHg 79%
    05:00 +11°C° 0 mm 3 m/S 735 mmHg 81%
    06:00 +11°C° 0 mm 3 m/S 736 mmHg 79%
    07:00 +12°C° 0 mm 3 m/S 736 mmHg 77%
    08:00 +12°C° 0 mm 3 m/S 736 mmHg 75%
    09:00 +13°C° 0 mm 3 m/S 736 mmHg 68%
    10:00 +16°C° 0 mm 3 m/S 736 mmHg 62%
    11:00 +17°C° 0 mm 4 m/S 736 mmHg 55%
    12:00 +18°C° 0 mm 3 m/S 736 mmHg 51%
    13:00 +18°C° 0 mm 3 m/S 735 mmHg 48%
    14:00 +19°C° 0 mm 3 m/S 735 mmHg 45%
    15:00 +19°C° 0 mm 3 m/S 735 mmHg 46%
    16:00 +18°C° 0 mm 3 m/S 735 mmHg 46%
    17:00 +18°C° 0 mm 3 m/S 735 mmHg 47%
    18:00 +17°C° 0 mm 4 m/S 736 mmHg 49%
    19:00 +15°C° 0 mm 4 m/S 736 mmHg 52%
    20:00 +14°C° 0 mm 4 m/S 737 mmHg 54%
    21:00 +14°C° 0 mm 4 m/S 737 mmHg 57%
    22:00 +13°C° 0 mm 5 m/S 737 mmHg 61%
    23:00 +12°C° 0 mm 5 m/S 737 mmHg 65%

    übermorgen, 27 Mai, Montag

    Zeit Temperatur Niederschläge Wind Luftdruck Luftfeuchtigkeit
    00:00 +12°C° 0 mm 5 m/S 737 mmHg 67%
    01:00 +10°C° 0 mm 5 m/S 737 mmHg 68%
    02:00 +11°C° 0 mm 4 m/S 737 mmHg 70%
    03:00 +10°C° 0 mm 4 m/S 737 mmHg 72%
    04:00 +10°C° 0 mm 4 m/S 737 mmHg 74%
    05:00 +10°C° 0 mm 3 m/S 737 mmHg 76%
    06:00 +10°C° 0 mm 4 m/S 737 mmHg 74%
    07:00 +10°C° 0 mm 4 m/S 738 mmHg 72%
    08:00 +11°C° 0 mm 4 m/S 738 mmHg 70%
    09:00 +12°C° 0 mm 4 m/S 738 mmHg 63%
    10:00 +14°C° 0 mm 4 m/S 738 mmHg 56%
    11:00 +15°C° 0 mm 4 m/S 738 mmHg 49%
    12:00 +17°C° 0 mm 4 m/S 737 mmHg 46%
    13:00 +18°C° 0 mm 4 m/S 737 mmHg 43%
    14:00 +18°C° 0 mm 4 m/S 736 mmHg 39%
    15:00 +18°C° 0 mm 4 m/S 736 mmHg 41%
    16:00 +17°C° 0 mm 3 m/S 736 mmHg 42%
    17:00 +17°C° 0 mm 3 m/S 736 mmHg 43%
    18:00 +16°C° 0 mm 3 m/S 736 mmHg 45%
    19:00 +14°C° 0 mm 3 m/S 737 mmHg 47%
    20:00 +14°C° 0 mm 3 m/S 737 mmHg 49%
    21:00 +13°C° 0 mm 3 m/S 737 mmHg 51%
    22:00 +13°C° 0 mm 3 m/S 737 mmHg 53%
    23:00 +12°C° 0 mm 3 m/S 738 mmHg 54%

    28 Mai, Dienstag

    Zeit Temperatur Niederschläge Wind Luftdruck Luftfeuchtigkeit
    00:00 +12°C° 0 mm 3 m/S 737 mmHg 57%
    01:00 +11°C° 0 mm 3 m/S 737 mmHg 59%
    02:00 +11°C° 0 mm 3 m/S 737 mmHg 61%
    03:00 +11°C° 0 mm 3 m/S 737 mmHg 64%
    04:00 +10°C° 0 mm 3 m/S 736 mmHg 66%
    05:00 +10°C° 0 mm 3 m/S 736 mmHg 69%
    06:00 +10°C° 0 mm 3 m/S 737 mmHg 68%
    07:00 +11°C° 0 mm 3 m/S 737 mmHg 67%
    08:00 +11°C° 0 mm 4 m/S 738 mmHg 65%
    09:00 +13°C° 0 mm 4 m/S 737 mmHg 59%
    10:00 +14°C° 0 mm 4 m/S 737 mmHg 52%
    11:00 +17°C° 0 mm 4 m/S 737 mmHg 46%
    12:00 +18°C° 0 mm 4 m/S 736 mmHg 43%
    13:00 +18°C° 0 mm 4 m/S 736 mmHg 40%
    14:00 +19°C° 0 mm 3 m/S 735 mmHg 38%
    15:00 +19°C° 0 mm 3 m/S 735 mmHg 39%
    16:00 +18°C° 0 mm 3 m/S 735 mmHg 41%
    17:00 +17°C° 0 mm 3 m/S 735 mmHg 43%
    18:00 +17°C° 0 mm 3 m/S 736 mmHg 46%
    19:00 +16°C° 0 mm 3 m/S 736 mmHg 50%
    20:00 +14°C° 0 mm 3 m/S 736 mmHg 53%
    21:00 +14°C° 0 mm 3 m/S 736 mmHg 56%
    22:00 +13°C° 0 mm 3 m/S 737 mmHg 59%
    23:00 +13°C° 0 mm 3 m/S 737 mmHg 62%

    29 Mai, Mittwoch

    Zeit Temperatur Niederschläge Wind Luftdruck Luftfeuchtigkeit
    00:00 +12°C° 0 mm 3 m/S 736 mmHg 64%
    01:00 +12°C° 0 mm 3 m/S 736 mmHg 66%
    02:00 +11°C° 0 mm 3 m/S 736 mmHg 68%
    03:00 +11°C° 0 mm 3 m/S 736 mmHg 69%
    04:00 +11°C° 0 mm 3 m/S 736 mmHg 70%
    05:00 +10°C° 0 mm 3 m/S 736 mmHg 72%
    06:00 +11°C° 0 mm 3 m/S 737 mmHg 70%
    07:00 +11°C° 0 mm 3 m/S 737 mmHg 68%
    08:00 +11°C° 0 mm 3 m/S 737 mmHg 66%
    09:00 +13°C° 0 mm 4 m/S 737 mmHg 60%
    10:00 +15°C° 0 mm 4 m/S 737 mmHg 53%
    11:00 +16°C° 0 mm 5 m/S 737 mmHg 46%
    12:00 +17°C° 0 mm 5 m/S 736 mmHg 43%
    13:00 +19°C° 0 mm 5 m/S 736 mmHg 40%
    14:00 +20°C° 0 mm 5 m/S 735 mmHg 38%
    15:00 +19°C° 0 mm 4 m/S 735 mmHg 40%
    16:00 +18°C° 0 mm 4 m/S 736 mmHg 42%
    17:00 +18°C° 0 mm 4 m/S 736 mmHg 44%
    18:00 +17°C° 0 mm 4 m/S 736 mmHg 47%
    19:00 +15°C° 0 mm 4 m/S 737 mmHg 50%
    20:00 +14°C° 0 mm 5 m/S 737 mmHg 54%
    21:00 +14°C° 0 mm 5 m/S 737 mmHg 58%
    22:00 +13°C° 0 mm 5 m/S 737 mmHg 63%
    23:00 +11°C° 0 mm 6 m/S 737 mmHg 68%

    30 Mai, Donnerstag

    Zeit Temperatur Niederschläge Wind Luftdruck Luftfeuchtigkeit
    00:00 +11°C° 0 mm 6 m/S 737 mmHg 70%
    01:00 +10°C° 0 mm 5 m/S 737 mmHg 73%
    02:00 +10°C° 0 mm 5 m/S 737 mmHg 75%
    03:00 +10°C° 0 mm 5 m/S 737 mmHg 77%
    04:00 +9°C° 0 mm 5 m/S 737 mmHg 79%
    05:00 +9°C° 0 mm 6 m/S 736 mmHg 81%
    06:00 +9°C° 0 mm 6 m/S 737 mmHg 79%
    07:00 +10°C° 0 mm 6 m/S 737 mmHg 77%
    08:00 +10°C° 0 mm 7 m/S 737 mmHg 75%
    09:00 +12°C° 0 mm 7 m/S 737 mmHg 66%
    10:00 +15°C° 0 mm 7 m/S 737 mmHg 58%
    11:00 +16°C° 0 mm 8 m/S 737 mmHg 50%
    12:00 +17°C° 0 mm 7 m/S 736 mmHg 46%
    13:00 +18°C° 0 mm 7 m/S 736 mmHg 42%
    14:00 +20°C° 0 mm 7 m/S 735 mmHg 37%
    15:00 +20°C° 0 mm 6 m/S 736 mmHg 38%
    16:00 +19°C° 0 mm 5 m/S 736 mmHg 39%
    17:00 +18°C° 0 mm 4 m/S 736 mmHg 40%
    18:00 +18°C° 0 mm 4 m/S 736 mmHg 39%
    19:00 +17°C° 0 mm 5 m/S 737 mmHg 39%
    20:00 +17°C° 0 mm 5 m/S 737 mmHg 39%
    21:00 +17°C° 0 mm 5 m/S 737 mmHg 40%
    22:00 +17°C° 0 mm 4 m/S 737 mmHg 41%
    23:00 +17°C° 0 mm 4 m/S 737 mmHg 42%
    Mehr zeigen